Location: ?????????
(55.6553°N, 38.9075°E)
Time: 03:53:10
(UTC+00:00)

Cosmos 1378 - Pass Details

Date: 18 October 2019
Orbit: 492 x 503 km, 82.5° (Epoch: 20 November)

Event Time Altitude Azimuth Distance (km) Brightness Sun altitude
Exits shadow 01:32:12 81° 208° (SSW) 517 3.0 -21.4°
Maximum altitude 01:32:23 87° 281° (W) 512 3.0 -21.4°
Drops below altitude 10° 01:36:10 10° 12° (NNE) 1,725 6.2 -20.9°
Sets 01:38:18 0° 12° (NNE) 2,612 7.1 -20.6°
